User: anonymous   Login
Location: Unspecified
(0.0000°N, 0.0000°E)
Time: 07:59:59
(UTC+00:00)
Language:

Aussat K1 - Orbit

View from above orbital plane
View from above orbital plane
View from above satellite
View from above satellite

Ground track
Ground track

The orbit data is extracted from the following two-line orbital elements,

1 15993U 85076B   15119.82249163  .00000105  00000-0  00000+0 0  9990
2 15993 015.0418 015.7220 0001680 234.3625 308.4089 00.99758857 79012
Epoch (UTC): 29 April 2015 19:44:23
Eccentricity: 0.0001680
inclination: 15.0418°
perigee height: 35923 km
apogee height: 35938 km
right ascension of ascending node: 15.7220°
argument of perigee: 234.3625°
revolutions per day: 0.99758857
mean anomaly at epoch: 308.4089°
orbit number at epoch: 7901

The dashed part of the orbit path shows where the satellite is in the earth's shadow,  

DLR